EW2887 Weather Reports


Display with metric or nautical units.
time (UTC)temp
F
wind
direction
speed
MPH
gust
MPH
rain 1hr
in
rain 24hr
in
rain mn
in
humidity
%
barometer
mb
20260904101500 70 176 8.0 12.0 0.00 0.00 0.00 70 1005.8
20260904100107 70 184 6.0 12.0 0.00 0.00 0.00 69 1005.5
20260904094556 71 177 6.0 11.0 0.00 0.00 0.00 68 1005.5
20260904093057 72 186 6.0 13.0 0.00 0.00 0.00 66 1005.4
20260904091550 72 163 7.0 12.0 0.00 0.00 0.00 67 1005.4
20260904090052 72 159 7.0 14.0 0.00 0.00 0.00 66 1005.4
20260904084545 72 157 7.0 12.0 0.00 0.00 0.00 65 1005.4
20260904083043 72 173 8.0 14.0 0.00 0.00 0.00 65 1005.4
20260904081546 73 186 7.0 12.0 0.00 0.00 0.00 64 1005.6
20260904080049 72 171 7.0 13.0 0.00 0.00 0.00 64 1005.5
20260904074539 73 171 9.0 13.0 0.00 0.00 0.00 64 1005.5
20260904073046 73 180 8.0 17.0 0.00 0.00 0.00 62 1005.6
20260904071536 73 193 9.0 13.0 0.00 0.00 0.00 63 1005.6
20260904070037 73 183 8.0 17.0 0.00 0.00 0.00 62 1005.6
20260904064533 73 170 6.0 12.0 0.00 0.00 0.00 63 1005.7
20260904063031 74 165 9.0 14.0 0.00 0.00 0.00 61 1005.7
20260904061536 75 161 8.0 14.0 0.00 0.00 0.00 60 1005.9
20260904060027 74 182 8.0 15.0 0.00 0.00 0.00 60 1005.9
20260904054524 75 360 6.0 14.0 0.00 0.00 0.00 58 1005.8
20260904053023 75 175 8.0 15.0 0.00 0.00 0.00 57 1005.9
20260904051527 77 167 8.0 15.0 0.00 0.00 0.00 54 1006.0
20260904050012 78 144 9.0 18.0 0.00 0.00 0.00 51 1005.9
20260904044514 80 144 10.0 25.0 0.00 0.00 0.00 48 1005.8
20260904043012 80 146 10.0 20.0 0.00 0.00 0.00 46 1005.9
20260904041518 80 131 11.0 18.0 0.00 0.00 0.00 46 1005.7
20260904040010 80 123 11.0 17.0 0.00 0.00 0.00 46 1005.6
20260904034509 80 128 9.0 19.0 0.00 0.00 0.00 46 1005.5
20260904033008 80 360 9.0 17.0 0.00 0.00 0.00 46 1005.5
20260904031509 81 360 12.0 19.0 0.00 0.00 0.00 45 1005.6
20260904030007 81 360 14.0 21.0 0.00 0.00 0.00 42 1005.4
20260904024505 81 141 8.0 16.0 0.00 0.00 0.00 43 1005.0
20260904023005 81 142 8.0 15.0 0.00 0.00 0.00 44 1004.8
20260904021508 81 121 10.0 15.0 0.00 0.00 0.00 44 1004.7
20260904020005 81 360 14.0 19.0 0.00 0.04 0.00 44 1004.7
20260904014504 80 127 10.0 18.0 0.00 0.04 0.00 47 1004.6
20260904013003 80 127 12.0 25.0 0.00 0.04 0.00 47 1004.5
20260904011502 81 120 14.0 22.0 0.00 0.04 0.00 47 1004.3
20260904010002 81 360 18.0 27.0 0.00 0.11 0.00 47 1004.4
20260904004504 82 150 16.0 22.0 0.00 0.11 0.00 43 1004.4
20260904003002 82 146 12.0 27.0 0.00 0.11 0.00 45 1004.6
20260904001600 84 144 14.0 30.0 0.00 0.11 0.00 42 1004.6
20260903234559 86 124 15.0 27.0 0.00 0.11 0.00 41 1004.3
20260903233057 85 97 14.0 27.0 0.00 0.11 0.00 39 1004.1
20260903231611 87 103 14.0 23.0 0.00 0.11 0.00 35 1003.8
20260903230111 93 136 5.0 7.0 0.00 0.11 0.00 27 1003.2
20260903224557 93 196 8.0 14.0 0.00 0.11 0.00 24 1003.2
20260903223106 89 360 17.0 28.0 0.00 0.11 0.00 27 1003.7
20260903221552 90 213 11.0 27.0 0.00 0.11 0.00 26 1004.1
20260903214553 88 142 21.0 37.0 0.00 0.11 0.00 27 1004.3
20260903213049 86 171 26.0 35.0 0.00 0.11 0.00 34 1004.3
20260903211548 90 360 14.0 21.0 0.00 0.11 0.00 26 1004.3
20260903210054 89 162 15.0 25.0 0.00 0.11 0.00 31 1004.2
20260903204556 96 196 10.0 16.0 0.00 0.11 0.00 20 1004.4
20260903203046 96 207 10.0 28.0 0.00 0.11 0.00 22 1004.3
20260903201544 97 242 4.0 6.0 0.00 0.11 0.00 25 1004.4
20260903200048 96 209 3.0 11.0 0.00 0.11 0.00 25 1004.6
20260903194547 97 360 8.0 15.0 0.00 0.11 0.00 25 1004.7
20260903193039 97 209 10.0 15.0 0.00 0.11 0.00 26 1004.9
20260903191552 97 209 4.0 13.0 0.00 0.11 0.00 26 1005.2
20260903190034 97 165 5.0 17.0 0.00 0.11 0.00 24 1005.4
20260903184532 100 257 4.0 12.0 0.00 0.11 0.00 24 1005.8
20260903183042 100 232 5.0 13.0 0.00 0.11 0.00 24 1006.0
20260903181528 98 300 5.0 21.0 0.00 0.11 0.00 26 1006.2
20260903180034 98 234 11.0 18.0 0.00 0.11 0.00 27 1006.3
20260903174525 96 240 11.0 17.0 0.00 0.11 0.00 29 1006.5
20260903173017 94 238 11.0 19.0 0.00 0.11 0.00 30 1006.7
20260903171520 93 221 14.0 25.0 0.00 0.11 0.00 32 1006.8
20260903170015 93 216 13.0 21.0 0.00 0.11 0.00 33 1006.9
20260903164511 91 237 18.0 23.0 0.00 0.11 0.00 33 1007.0
20260903163014 91 216 15.0 24.0 0.00 0.11 0.00 35 1007.1
20260903161507 89 236 15.0 24.0 0.00 0.11 0.00 36 1007.1
20260903160100 88 217 18.0 25.0 0.00 0.11 0.00 37 1007.2
20260903154557 87 217 16.0 24.0 0.00 0.11 0.00 39 1007.1
20260903153152 86 232 15.0 22.0 0.00 0.11 0.00 41 1007.2
20260903151549 84 231 17.0 24.0 0.00 0.11 0.00 43 1007.2
20260903150044 81 216 17.0 23.0 0.00 0.11 0.00 47 1007.4
20260903144541 79 232 17.0 22.0 0.00 0.11 0.00 49 1007.6
20260903143041 76 243 10.0 18.0 0.00 0.11 0.00 53 1007.8
20260903141535 74 360 14.0 18.0 0.00 0.11 0.00 55 1007.8
20260903140033 71 190 13.0 17.0 0.00 0.11 0.00 59 1007.6
20260903134535 70 207 13.0 18.0 0.00 0.11 0.00 58 1007.4
20260903133029 70 196 13.0 18.0 0.00 0.11 0.00 58 1007.5
20260903131529 70 196 12.0 17.0 0.00 0.11 0.00 59 1007.2
20260903130026 69 202 13.0 17.0 0.00 0.11 0.00 59 1007.2
20260903124546 69 202 13.0 17.0 0.00 0.11 0.00 59 1007.1
20260903123024 70 192 14.0 20.0 0.00 0.11 0.00 58 1006.9
20260903121539 70 175 12.0 18.0 0.00 0.11 0.00 58 1006.7
20260903120025 69 178 11.0 17.0 0.00 0.11 0.00 60 1006.8
20260903114522 69 184 11.0 16.0 0.00 0.11 0.00 59 1006.7
20260903113020 70 188 13.0 18.0 0.00 0.11 0.00 57 1006.6
20260903111517 70 197 13.0 15.0 0.00 0.11 0.00 58 1006.6
20260903110016 70 194 11.0 17.0 0.00 0.11 0.00 58 1006.7
20260903104511 71 182 11.0 16.0 0.00 0.11 0.00 56 1006.7
20260903103009 72 190 12.0 19.0 0.00 0.11 0.00 54 1006.7